Dewpoint
58 57 57 56 56 55 56 57 56 55 56 58 58 58 60 59 58 51 46 48 52 55 55 49 40 38 39 38 38 34 25 20 19 18 21 24 24 26 27 20 17 25 29 31 37
56 57 57 56 55 55 55 55 54 54 56 56 56 58 58 56 47 46 46 50 51 54 49 42 36 37 32 35 33 28 22 21 28 28 25 27 26 23 17 18 19 27 30 37 38
55 56 56 55 55 54 54 54 55 55 55 55 55 56 55 49 39 34 48 48 49 52 50 41 40 36 31 31 29 27 25 27 33 31 30 26 23 23 18 19 20 25 29 36 38
55 55 55 55 55 55 55 53 54 55 54 55 55 55 54 44 23 34 47 46 48 49 44 36 34 29 28 27 30 23 30 32 35 32 27 25 26 21 21 24 29 29 30 36 37
55 55 54 54 54 54 54 54 53 53 54 55 53 54 45 33 29 36 51 43 46 46 37 35 30 28 26 28 26 26 28 32 32 27 26 27 26 23 25 30 28 28 29 36 36
55 54 54 54 54 54 55 55 53 54 52 55 53 52 35 27 30 33 34 37 38 38 34 33 28 26 25 24 22 27 29 30 29 28 29 26 28 29 26 29 26 27 29 34 36
55 55 54 53 53 53 53 53 55 54 52 53 52 36 30 27 33 34 35 36 39 39 36 38 34 24 23 24 28 28 23 27 28 30 28 26 18 25 25 27 26 28 31 33 33
55 55 54 54 54 53 53 53 54 54 52 53 52 33 26 36 34 35 36 36 38 39 38 38 38 29 26 26 24 22 24 20 28 28 28 20 4 27 25 27 25 26 30 33 32
55 55 55 54 54 55 54 55 55 54 53 52 39 30 27 42 34 33 36 35 35 36 34 32 30 26 24 19 16 18 13 21 25 27 27 22 14 24 25 27 26 24 27 32 31
55 55 55 54 55 54 54 54 53 49 45 39 28 26 30 31 35 35 36 36 32 35 31 30 29 21 21 19 8 14 17 16 20 22 22 23 20 21 22 26 26 24 28 30 31
55 54 54 54 54 54 47 42 37 29 31 30 30 30 31 35 37 35 35 33 31 28 21 29 18 17 13 16 16 13 10 11 22 24 23 22 22 23 26 22 21 24 29 30 32
54 54 54 53 53 52 47 36 37 32 27 32 32 33 34 36 33 34 36 26 27 23 23 21 22 20 21 20 18 15 13 21 23 24 21 21 20 22 24 23 24 27 29 32 32
54 54 53 53 52 46 41 41 44 41 27 29 32 33 34 36 32 31 33 28 22 20 23 18 21 22 21 21 18 19 19 21 20 23 23 23 16 24 26 27 28 30 31 33 34
54 54 53 53 45 40 40 44 44 43 31 24 29 31 35 35 27 33 30 30 25 24 24 21 22 20 19 21 22 19 22 23 23 14 4 21 2 19 26 26 30 32 34 34 36
53 54 53 52 42 41 43 44 42 35 6 29 30 35 33 32 29 29 30 28 23 23 23 22 22 22 21 21 23 22 26 23 24 22 21 19 17 17 25 25 27 30 30 27 30
52 53 53 44 44 44 45 45 43 24 0 25 30 29 27 28 27 29 26 26 27 25 24 24 24 23 21 24 25 26 24 27 26 25 18 15 16 17 23 24 25 28 29 27 29
51 53 51 44 39 46 46 42 25 16 23 26 28 28 26 26 25 26 21 21 22 20 20 24 23 24 25 24 26 26 24 20 18 19 17 23 19 21 21 19 24 27 27 29 31
51 53 49 45 47 47 42 27 15 15 23 29 28 26 23 24 23 23 21 18 19 25 23 20 19 23 22 23 23 24 23 18 7 18 21 19 17 17 21 26 26 29 29 30 31
51 47 46 46 47 46 37 22 14 20 27 26 24 19 21 21 21 20 20 19 18 20 19 23 20 23 23 24 24 23 22 26 21 19 18 16 15 23 23 25 26 27 28 30 33
44 45 46 48 48 44 35 30 27 29 28 25 15 17 15 20 19 19 19 19 17 19 26 21 20 22 24 26 27 25 24 20 22 13 15 18 17 16 19 24 26 27 28 31 33
43 40 45 48 45 39 29 28 31 29 26 23 14 18 18 19 16 18 18 20 18 18 21 21 21 23 22 22 22 24 23 23 23 20 17 13 16 22 21 22 26 27 29 29 29
41 30 42 47 36 35 31 34 33 28 31 28 26 19 16 21 17 17 16 21 20 21 20 24 23 21 21 25 26 23 23 23 19 15 20 19 18 22 23 22 24 28 28 28 28
35 37 45 45 26 30 33 31 29 29 28 27 26 25 24 19 16 19 22 26 23 23 22 24 22 17 20 24 25 24 24 25 24 23 20 16 18 22 27 27 27 28 28 29 28
37 27 38 39 36 29 31 30 29 33 30 29 26 27 25 22 23 24 25 24 24 27 35 31 25 19 14 19 24 22 23 26 23 18 20 20 19 23 26 26 27 25 25 24 25
38 33 34 32 33 32 31 29 29 30 32 29 28 26 24 22 23 23 26 23 24 32 29 25 19 25 26 26 24 22 22 24 21 22 19 18 22 20 25 26 24 23 21 19 19
34 35 34 31 31 33 31 25 29 31 31 29 26 28 26 23 23 23 27 24 22 26 26 27 21 19 17 24 25 24 24 25 25 24 24 23 21 25 25 24 23 21 18 16 14
39 39 31 29 29 31 30 29 27 32 31 30 29 29 28 27 29 29 29 28 27 24 25 26 24 20 19 21 20 14 21 23 23 24 24 23 24 24 23 22 19 16 13 11 12
Lifted_Index
1 0 0 0 1 2 2 2 2 2 1 1 1 1 2 4 5 6 7 7 6 5 3 4 7 8 8 7 7 7 5 4 4 5 5 6 7 8 9 9 9 10 11 12 12
1 1 0 1 1 2 2 2 2 2 2 2 2 2 3 5 6 6 7 7 6 5 4 4 7 8 7 7 7 6 5 5 5 5 6 6 7 8 8 8 8 10 11 12 12
1 1 1 1 1 2 2 3 3 3 3 3 3 3 4 6 6 7 7 8 7 6 5 6 7 7 7 7 7 6 5 6 6 7 7 7 7 8 7 7 8 9 11 12 12
2 2 2 2 1 2 2 3 3 3 4 4 4 5 5 6 7 8 8 9 8 8 7 8 8 7 6 7 7 6 6 6 7 8 8 7 7 8 8 8 9 10 11 12 12
2 2 2 2 2 2 2 3 3 4 4 5 5 6 6 7 8 9 9 9 9 8 8 8 8 7 7 7 7 6 6 7 8 8 8 8 7 8 8 9 10 11 11 12 12
3 3 3 3 3 2 2 3 3 4 5 5 5 6 7 8 9 9 9 9 9 8 8 8 8 8 7 7 7 7 6 7 8 8 8 7 7 7 8 10 11 11 11 12 12
4 4 4 4 4 3 3 3 4 4 5 5 5 6 7 8 9 9 9 9 8 8 8 8 9 8 8 8 7 7 6 6 7 7 7 7 6 7 8 10 10 10 11 12 12
4 4 4 4 4 5 4 4 4 5 5 5 6 6 7 8 9 9 9 9 9 9 9 9 9 9 8 8 7 6 5 5 6 7 7 6 6 7 8 9 9 10 10 11 11
6 5 5 5 5 5 5 5 5 6 6 6 6 7 7 8 9 9 9 9 10 10 10 10 10 9 8 6 5 4 4 4 5 6 7 6 6 7 8 9 9 9 9 10 10
7 7 6 6 6 6 6 6 6 7 7 7 7 7 8 9 9 10 10 10 10 10 10 9 9 7 6 5 4 4 3 4 5 6 6 6 6 7 8 8 8 9 9 9 10
8 8 8 7 7 7 7 7 7 7 7 7 8 8 8 9 9 10 10 10 10 9 8 8 7 6 6 5 5 4 4 4 5 6 6 6 6 7 8 8 9 9 9 10 10
9 9 9 9 9 8 8 7 7 7 7 7 8 8 9 9 9 10 10 10 9 8 7 7 6 6 6 6 6 5 4 4 5 7 7 6 6 6 7 8 9 9 10 10 10
9 9 10 10 10 9 9 8 8 7 6 7 8 9 9 9 9 9 10 9 8 7 6 6 6 7 7 6 6 5 5 5 5 6 6 5 5 5 6 8 8 9 10 10 10
9 10 10 11 11 10 10 10 9 7 5 5 7 8 9 8 8 9 10 9 8 7 6 6 7 7 6 6 6 5 6 6 6 5 5 4 4 4 5 6 7 8 9 10 10
10 10 10 11 11 11 10 10 9 6 4 5 7 8 8 8 8 9 9 9 8 7 6 6 7 7 6 6 6 6 6 6 6 5 4 4 3 4 5 5 6 8 9 10 10
11 10 11 11 11 11 11 10 8 5 3 4 6 7 7 7 7 8 8 8 7 6 6 6 7 7 7 7 7 7 6 5 5 4 3 3 3 4 5 6 6 8 9 10 10
11 11 11 11 11 11 11 9 6 4 4 5 5 6 6 6 6 7 6 6 6 5 5 5 6 7 7 7 7 6 5 3 2 2 2 3 4 4 5 6 7 8 8 9 10
11 11 10 11 11 10 9 7 5 4 5 5 6 5 5 6 6 6 5 5 5 5 4 3 4 6 7 7 6 5 4 3 2 1 3 4 4 5 6 7 7 7 8 9 9
11 10 9 10 10 10 8 6 4 5 5 5 5 5 4 5 5 5 5 5 5 5 4 3 3 5 7 7 6 5 4 4 3 2 2 3 4 5 6 7 7 7 8 9 9
10 9 8 9 9 9 7 5 5 6 6 6 5 4 4 4 4 4 4 5 5 6 6 4 4 5 6 7 6 6 5 4 4 2 2 2 3 4 6 6 7 7 8 9 9
9 8 8 8 8 8 6 6 6 7 7 6 5 5 4 4 4 4 4 5 6 6 6 6 5 5 6 6 6 6 5 5 4 3 2 2 3 5 6 6 7 8 9 9 10
9 8 7 7 7 7 6 6 7 7 7 6 6 5 5 5 4 4 5 6 7 7 6 6 5 4 5 6 6 6 6 5 5 4 3 3 4 6 6 6 7 8 9 9 9
8 8 7 7 7 6 6 6 7 7 7 6 6 6 5 5 5 5 5 6 7 7 6 6 5 4 4 5 6 6 6 5 5 4 4 3 4 6 7 7 7 8 9 9 9
7 7 7 7 7 6 6 6 6 7 7 7 6 6 5 5 5 5 5 6 7 7 6 6 5 4 4 5 5 5 5 5 5 4 4 4 4 6 7 7 8 8 9 9 9
7 7 7 7 6 6 6 6 6 6 7 7 6 6 5 5 5 5 5 6 6 6 6 6 5 5 5 5 5 5 5 5 5 4 4 4 5 6 7 7 8 8 9 9 9
7 7 7 6 6 6 6 6 6 6 7 7 6 6 5 5 5 5 5 6 6 6 6 6 5 5 4 5 5 5 5 5 5 5 4 5 5 6 7 7 8 8 9 9 10
7 7 7 7 6 5 6 6 6 6 7 7 6 6 6 6 5 5 5 5 6 6 6 6 5 5 4 4 4 4 4 4 4 5 5 5 6 7 7 7 8 8 9 10 11